Roatan, Honduras

10:32 PM CST on August 31, 2015 (GMT -0600)
Parrot Tree Plantation | | Change Station
CLOSE
Current Station
Personal Weather Station
Location: Parrot Tree, BAY ISLANDS
Elevation: 144 ft
Nearby Weather Stations

Elev 144 ft 16.37 °N, 86.41 °W | Updated 5 minutes ago

Mostly Cloudy
Mostly Cloudy
84.0 °F
Feels Like 95 °F
N
7.3
Wind Variable Wind from NE

Today
High -- | Low -- °F
--% Chance of Precip.
Yesterday
High -- | Low -- °F
Precip. -- in
5:32 AM 5:59 PM
Waning Gibbous, 91% visible
Pressure 29.95 in
Visibility 6.2 miles
Clouds Few 2800 ft
Mostly Cloudy 20000 ft
Heat Index 95 °F
Dew Point 78 °F
Humidity 83%
Rainfall 0.00 in
Snow Depth Not available.
UV 0 out of 12
Pollen Not available.
Air Quality Not available.
Flu Activity Not available.
METAR MHLC 010400Z VRB02KT 9999 FEW028CB BKN200 24/23 Q1014 A2995 NOSIG
Pressure 29.95 in
Visibility 6.2 miles
Clouds Few 2800 ft
Mostly Cloudy 20000 ft
Heat Index 95 °F
Dew Point 78 °F
Humidity 83%
Rainfall 0.00 in
Snow Depth Not available.
UV 0 out of 12
Pollen Not available.
Air Quality Not available.
Flu Activity Not available.
METAR MHLC 010400Z VRB02KT 9999 FEW028CB BKN200 24/23 Q1014 A2995 NOSIG

10-Day Weather Forecast

×

Almanac

Astronomy

Aug. 31, 2015 Rise Set
Actual Time
Civil Twilight
Nautical Twilight
Astronomical Twilight
Moon
Length of Visible Light
Length of Day
Tomorrow will be .
, % of the Moon is Illuminated

Today's Extremes

Country Highs Country Lows

Community

WunderPhotos

Upload Photos

1,851,479 photos uploaded!

WunderBlogs® & News

Nearby

Air Quality

  Air Quality AQ Index Pollutant
Not available.

Snow Depth

Station Depth Elevation

Earthquake Activity

City Distance Mag. Time & Date
Minimum magnitude displayed is 2.5.

Coastal Water Temperatures

Place Temperature

Stations

Nearby Weather Stations

Station Location Temp. Windchill Dew Point Humidity Wind Precip. Elev Updated Type